Regional Weather Roundup
Issued by NWS

Home | Current Version | Previous Version | Text Only | Print | Product List | Glossary Off
Versions: 1 2 3 4 5 6 7 8 9 10 11 12 13 14 15 16 17 18 19 20 21 22 23 24 25 26 27 28 29 30 31 32 33 34 35 36 37 38 39 40 41 42 43 44 45 46 47 48 49 50

000
ASUS43 KMKX 192300
RWRWI

WISCONSIN REGIONAL WEATHER ROUNDUP
NATIONAL WEATHER SERVICE MILWAUKEE/SULLIVAN WI
600 PM CDT TUE AUG 19 2014

NOTE: "FAIR" INDICATES FEW OR NO CLOUDS BELOW 12,000 FEET WITH NO
SIGNIFICANT WEATHER AND/OR OBSTRUCTIONS TO VISIBILITY.

WIZ001-002-006>008-014>016-023>028-200000-
NORTHWEST WISCONSIN

CITY           SKY/WX    TMP DP  RH WIND       PRES   REMARKS
SUPERIOR ARPT  PTSUNNY   67  63  87 E5        29.74R
ASHLAND        CLOUDY    66  60  81 NE8       29.76R
HAYWARD        PTSUNNY   69  64  84 CALM      29.75R
SIREN          PTSUNNY   73  63  71 W3        29.74R
RICE LAKE      MOSUNNY   71  63  74 NW3       29.75S
LADYSMITH      PTSUNNY   72  64  74 NW6       29.76R
EAU CLAIRE     NOT AVBL
MENOMONIE      MOCLDY    77  61  57 W8        29.74S
NEW RICHMOND   CLOUDY    73  62  67 W6        29.76R
OSCEOLA        CLOUDY    74  63  68 NW5       29.77R
$$

WIZ003>005-009-010-017-018-200000-
NORTH CENTRAL WISCONSIN

CITY           SKY/WX    TMP DP  RH WIND       PRES   REMARKS
WOODRUFF       CLOUDY    67  61  79 N8        29.75R
RHINELANDER    CLOUDY    66  60  81 NW5       29.75R
EAGLE RIVER    CLOUDY    65  57  77 N9        29.74R
LAND O LAKES   CLOUDY    62  58  87 NW6       29.76R
PHILLIPS       PTSUNNY   69  63  81 NW6       29.74R
TOMAHAWK       CLOUDY    67  61  81 NW5       29.74R
MEDFORD        DRIZZLE   67  64  89 NW6       29.75R
MERRILL        CLOUDY    68  65  89 NW8       29.73R
$$

WIZ029-030-035-036-043>047-200000-
CENTRAL WISCONSIN

CITY           SKY/WX    TMP DP  RH WIND       PRES   REMARKS
WAUSAU         RAIN      66  64  93 NW10      29.72R FOG
MOSINEE        PTSUNNY   72  64  78 W8        29.74R
MARSHFIELD     MOSUNNY   74  62  66 W12       29.74R
STEVENS POINT  MOSUNNY   73  61  66 W9        29.72R
WAUPACA        MOSUNNY   78  62  59 W8        29.71R
WAUTOMA        NOT AVBL
WISC RAPIDS    MOSUNNY   76  62  62 W9        29.74R
CAMP DOUGLAS   NOT AVBL
$$

WIZ011>013-019>022-031-037>040-048>050-200000-
NORTHEAST WISCONSIN

CITY           SKY/WX    TMP DP  RH WIND       PRES   REMARKS
ANTIGO         DRIZZLE   67  63  88 W8        29.73R
STURGEON BAY   CLOUDY    73  63  68 SW9       29.67S
GREEN BAY      PTSUNNY   75  67  76 W8        29.68S
MANITOWOC      NOT AVBL
APPLETON       MOSUNNY   75  61  60 W13G18    29.70S
CLINTONVILLE   MOSUNNY   77  59  53 W9        29.68R
OSHKOSH        SUNNY     76  62  62 W6G17     29.69S
$$

WIZ032>034-041-042-053>061-200000-
SOUTHWEST WISCONSIN

CITY           SKY/WX    TMP DP  RH WIND       PRES   REMARKS
LA CROSSE      MOSUNNY   80  62  54 NW10      29.73S HX  81
SPARTA         MOSUNNY   77  59  53 W12       29.74S
VIROQUA        FAIR      75  62  64 NW7       29.76S
BOSCOBEL       PTSUNNY   83  63  50 NW10      29.74R HX  84
PRAIRIE DU CHI MOSUNNY   82  58  43 W12G18    29.73S HX  82
PLATTEVILLE    FAIR      80  62  54 W13G18    29.76R HX  81
$$

WIZ056-057-062-063-064-067-068-200000-
SOUTH CENTRAL WISCONSIN

CITY           SKY/WX    TMP DP  RH WIND       PRES   REMARKS
BARABOO/DELLS  MOSUNNY   78  59  51 NW9       29.73S
LONE ROCK      NOT AVBL
WATERTOWN      PTSUNNY   79  64  60 W9        29.71R HX  81
MADISON        PTSUNNY   80  62  54 NW8       29.73R HX  81
MIDDLETON      FAIR      80  60  50 NW12      29.73S HX  81
MONROE         SUNNY     81  61  50 W12       29.75R HX  81
JANESVILLE     MOSUNNY   82  63  51 NW12G18   29.72R HX  83
$$

WIZ051-052-058>065-066-070>072-200000-
SOUTHEAST WISCONSIN

CITY           SKY/WX    TMP DP  RH WIND       PRES   REMARKS
MILWAUKEE      PTSUNNY   76  66  71 E8        29.71R
WAUKESHA       MOSUNNY   79  63  57 NW10      29.73R HX  80
MILWAUKEE/TIMM MOSUNNY   79  63  57 NW9       29.71R HX  80
RACINE         PTSUNNY   78  67  68 N8        29.72R HX  80
BURLINGTON     MOSUNNY   79  64  59 W7        29.72R HX  81
KENOSHA        SUNNY     81  66  60 W8        29.71R HX  83
FOND DU LAC    PTSUNNY   77  63  61 W10       29.71R
SHEBOYGAN      PTSUNNY   76  64  66 W6        29.70R
WEST BEND      MOSUNNY   77  59  53 W12       29.71R
JUNEAU         MOSUNNY   77  39  25 W9        29.72S
$$

LSZ147-162-200000-
LAKE SUPERIOR

STATION/POSITION TIME  TEMP    WIND        PRES    WAVE
                       AIR SEA DIR/SP/G            HT/PER
                 (UTC) (F)     (DEG/KT/KT) (MB)    (FT/S)
W MID LAKE BUOY  2150   56 56   20/ 12/ 14 1006.9R   2/ 5
PORT WING        2240   66      40/  4/  5 1007.8R
SAXON HARBOR     2200   62      40/ 10/ 11 1007.5
$$

LMZ867-665-643>646-200000-
LAKE MICHIGAN

STATION/POSITION TIME  TEMP    WIND        PRES    WAVE
                       AIR SEA DIR/SP/G            HT/PER
                 (UTC) (F)     (DEG/KT/KT) (MB)    (FT/S)
N MID LAKE BUOY  2150   63 62  180/ 12/ 14 1003.7F   2/ 4
NORTHPORT PIER   2200   69     150/  6/  8 1004.1S
ALGOMA LAKESHORE 2237          340/  9/ 14   N/A
KEWAUNEE LAKESHO 2200   71     200/  2/  6 1003.9F
SHEBOYGAN LAKESH 2200   77 66  260/  7/  9 1005.3F
ATWATER BUOY     2200   71      90/  4     1006.9R
MILWAUKEE LAKESH 2200   73      90/  9/ 11   N/A
S MID LAKE BUOY  2150   71 67   20/  2/  4 1005.9R   2/ 4
KENOSHA   LAKESH 2200   83     290/ 13/ 21 1004.7S
$$

TC  - TEMPERATURE IN CELSIUS
VSB - VISIBILITY IN STATUTE MILES
WCI - WIND CHILL INDEX
HX  - HEAT INDEX




USA.gov is the U.S. government's official web portal to all federal, state and local government web resources and services.